Regional Weather Roundup
Issued by NWS

Home | Current Version | Previous Version | Text Only | Print | Product List | Glossary On
Versions: 1 2 3 4 5 6 7 8 9 10 11 12 13 14 15 16 17 18 19 20 21 22 23 24 25 26 27 28 29 30 31 32 33 34 35 36 37 38 39 40 41 42 43 44 45 46 47 48 49 50
000
ASUS45 KPSR 101210
RWRAZ

ARIZONA HOURLY REGIONAL WEATHER ROUNDUP
NATIONAL WEATHER SERVICE PHOENIX AZ
500 AM MST SAT DEC 10 2016

NOTE: FAIR INDICATES FEW OR NO CLOUDS BELOW 12,000 FEET WITH NO
SIGNIFICANT WEATHER AND/OR OBSTRUCTIONS TO VISIBILITY.

AZZ001>003-036-101300-
NORTHWEST ARIZONA

CITY           SKY/WX    TMP DP  RH WIND       PRES   REMARKS
BULLHEAD CITY  CLEAR     48  27  43 CALM      30.15S
KINGMAN        PTCLDY    35  30  82 S3        30.16F
6HR MIN TEMP:  34; 6HR MAX TEMP:  38;

$$

AZZ004>008-015-016-018-101300-
NORTH CENTRAL ARIZONA

CITY           SKY/WX    TMP DP  RH WIND       PRES   REMARKS
GRAND CANYON   PTCLDY    21  19  92 CALM      30.21F
6HR MIN TEMP:  21; 6HR MAX TEMP:  26;

WILLIAMS       CLEAR     30  28  93 S8        30.22S WCI  23
PRESCOTT       PTCLDY    29  28  96 SW5       30.20F WCI  24
6HR MIN TEMP:  29; 6HR MAX TEMP:  35;

FLAGSTAFF      CLEAR     26  24  92 CALM      30.22F
6HR MIN TEMP:  24; 6HR MAX TEMP:  29;

PAYSON         CLEAR     39  32  75 CALM      30.25S
PAGE           PTCLDY    33  17  51 NW3       30.18F
6HR MIN TEMP:  31; 6HR MAX TEMP:  39;

$$

AZZ009>014-017-101300-
NORTHEAST ARIZONA

CITY           SKY/WX    TMP DP  RH WIND       PRES   REMARKS
WINSLOW        MOCLDY    24  21  88 SE3       30.21S
6HR MIN TEMP:  23; 6HR MAX TEMP:  34;

SAINT JOHNS    PTCLDY    22  18  85 CALM      30.21F
6HR MIN TEMP:  22; 6HR MAX TEMP:  36;

WINDOW ROCK    CLEAR     20  16  84 CALM      30.24S
6HR MIN TEMP:  19; 6HR MAX TEMP:  27;

SHOW LOW       PTCLDY    37  23  56 S15       30.23S WCI  28
$$

AZZ023-101300-
GREATER PHOENIX AREA

CITY           SKY/WX    TMP DP  RH WIND       PRES   REMARKS
PHOENIX        PTCLDY    49  39  68 CALM      30.12R
6HR MIN TEMP:  49; 6HR MAX TEMP:  57;

BUCKEYE        CLEAR     45  39  81 CALM      30.13F
LUKE AFB       CLEAR     47  39  74 N5        30.11F
6HR MIN TEMP:  47; 6HR MAX TEMP:  52;

DEER VALLEY    CLEAR     52  37  56 N7        30.12S
6HR MIN TEMP:  50; 6HR MAX TEMP:  55;

SCOTTSDALE     CLEAR     46  38  73 CALM      30.13S
6HR MIN TEMP:  46; 6HR MAX TEMP:  54;

$$

AZZ027-028-101300-
SOUTHWEST MARICOPA COUNTY AND PINAL COUNTY

CITY           SKY/WX    TMP DP  RH WIND       PRES   REMARKS
CASA GRANDE    NOT AVBL
GILA BEND      FAIR      44  35  69 SE7       30.11F
6HR MIN TEMP:  44; 6HR MAX TEMP:  51;

$$

AZZ503-504-507>509-101300-
SOUTHEAST ARIZONA

CITY           SKY/WX    TMP DP  RH WIND       PRES   REMARKS
TUCSON         CLEAR     45  31  58 SE9       30.15F
6HR MIN TEMP:  44; 6HR MAX TEMP:  51;

DAVIS-MONTHAN  CLEAR     47  31  54 S3        30.13F
6HR MIN TEMP:  43; 6HR MAX TEMP:  48;

NOGALES        CLEAR     37  27  67 S5        30.17F WCI  33
6HR MIN TEMP:  37; 6HR MAX TEMP:  47;

SIERRA VISTA   CLEAR     41  30  63 SE3       30.22S
6HR MIN TEMP:  37; 6HR MAX TEMP:  47;

DOUGLAS        CLEAR     27  24  89 S5        30.22S WCI  22
6HR MIN TEMP:  27; 6HR MAX TEMP:  42;

SAFFORD        CLEAR     43  32  65 SE13      30.21F
6HR MIN TEMP:  43; 6HR MAX TEMP:  49;

$$

AZZ020-021-025-026-031-101300-
SOUTHWEST ARIZONA

CITY           SKY/WX    TMP DP  RH WIND       PRES   REMARKS
YUMA           CLEAR     52  23  32 NE6       30.10F
6HR MIN TEMP:  50; 6HR MAX TEMP:  57;

$$

CAZ031-033-041-043-047-048-061-101300-
SOUTHERN CALIFORNIA

CITY           SKY/WX    TMP DP  RH WIND       PRES   REMARKS
DOWNTOWN L.A.  CLOUDY    56  54  93 CALM      30.15F FOG
6HR MIN TEMP:  56; 6HR MAX TEMP:  58;

L.A. AIRPORT   CLOUDY    57  54  89 E7        30.16F FOG
6HR MIN TEMP:  56; 6HR MAX TEMP:  60;

SAN DIEGO      CLOUDY    58  52  80 N3        30.17S
6HR MIN TEMP:  58; 6HR MAX TEMP:  60;

BURBANK        FOG       50  50 100 CALM      30.15F VSB 3/4
6HR MIN TEMP:  50; 6HR MAX TEMP:  53;

ONTARIO        PTCLDY    47  45  93 NW3       30.15S
6HR MIN TEMP:  46; 6HR MAX TEMP:  54;

RIVERSIDE      CLEAR     47  45  93 CALM      30.16R
6HR MIN TEMP:  47; 6HR MAX TEMP:  53;

PALM SPRINGS   CLEAR     51  43  74 CALM        N/A
6HR MIN TEMP:  51; 6HR MAX TEMP:  59;

EL CENTRO NAS  CLEAR     48  29  47 W6        30.12F
6HR MIN TEMP:  44; 6HR MAX TEMP:  52;

IMPERIAL       CLEAR     45  32  60 CALM      30.10F
6HR MIN TEMP:  45; 6HR MAX TEMP:  52;

BLYTHE         CLEAR     44  18  35 CALM      30.13F
6HR MIN TEMP:  44; 6HR MAX TEMP:  53;

NEEDLES        CLEAR     45  17  32 W5        30.15S
6HR MIN TEMP:  45; 6HR MAX TEMP:  54;

$$

NVZ020-UTZ003-101300-
SOUTHERN NEVADA-UTAH

CITY           SKY/WX    TMP DP  RH WIND       PRES   REMARKS
LAS VEGAS      MOCLDY    42  16  34 CALM      30.15F
6HR MIN TEMP:  41; 6HR MAX TEMP:  47;

SALT LAKE CITY CLOUDY    46  30  53 SE9       29.95F
6HR MIN TEMP:  32; 6HR MAX TEMP:  46;

$$

NMZ009-TXZ055-101300-
NEW MEXICO-WEST TEXAS

CITY           SKY/WX    TMP DP  RH WIND       PRES   REMARKS
ALBUQUERQUE    CLOUDY    27  24  89 E5        30.26F WCI  22
6HR MIN TEMP:  27; 6HR MAX TEMP:  36;

EL PASO        CLEAR     33  25  72 N9        30.27S WCI  25
6HR MIN TEMP:  32; 6HR MAX TEMP:  37;

$$


........................KEY........................
SKY/WX - SKY CONDITION/WEATHER
TMP    - TEMPERATURE IN FAHRENHEIT
DP     - DEW POINT IN FAHRENHEIT
RH     - RELATIVE HUMIDITY IN PERCENT
WIND   - DIRECTION AND SPEED IN MILES PER HOUR (MPH)
VRB    - VARIABLE WIND DIRECTION
PRES   - MEAN SEA LEVEL PRESSURE IN INCHES OF MERCURY
         F - FALLING PRESSURE   R - RISING PRESSURE
         S - STEADY PRESSURE
VSB    - VISIBILITY IN MILES
HX     - HEAT INDEX IN FAHRENHEIT
WCI    - WIND CHILL INDEX IN FAHRENHEIT
TC     - TEMPERATURE IN CELSIUS WHICH IS ALSO KNOWN AS
         TEMPERATURE IN CENTIGRADE
AFB    - AIR FORCE BASE
         LUKE AFB IS LUKE AIR FORCE BASE
         DAVIS-MONTHAN IS DAVIS-MONTHAN AIR FORCE BASE
NAS    - NAVAL AIR STATION
         EL CENTRO NAS IS EL CENTRO NAVAL AIR STATION
N/A    - NOT AVAILABLE




USA.gov is the U.S. government's official web portal to all federal, state and local government web resources and services.